{"data":{"norad_id":49432,"intl_designator":"2021-104AA","name":"STARLINK-3158","alt_names":[],"object_type":"PAYLOAD","status":"ACTIVE","operator":null,"country":"US","launch_date":"2021-11-13","launch_site_code":"AFETR","launch_vehicle":null,"mission":null,"orbit_class":"UNKNOWN","rcs_meters":null,"size_class":null,"mass_kg":null,"dimensions":null,"purposes":["comms"],"wikipedia_slug":null,"has_3d_model":false,"image_url":null,"decayed_at":null,"tle_current":{"epoch":"2026-09-20T00:57:57.201696Z","epoch_age_seconds":81032,"freshness":"FRESH","line1":"1 49432U 21104AA  26263.04024539  .00000302  00000+0  21493-4 0  9993","line2":"2 49432  53.1599  53.9970 0001115  80.8477 279.2651 15.31703933268284","mean_motion":15.31703933,"eccentricity":0.0001115,"inclination_deg":53.1599,"raan_deg":53.997,"arg_perigee_deg":80.8477,"mean_anomaly_deg":279.2651,"bstar":2.1493e-5,"rev_number":26828,"period_min":94.012946560737,"perigee_km":469.96462270465,"apogee_km":471.49191966013,"semimajor_km":6848.8652711824,"source":"CELESTRAK","updated_at":"2026-09-20T09:00:39.259492Z"}}}